{"data":{"norad_id":64097,"epoch":"2026-09-20T11:36:10.220832Z","epoch_age_seconds":144945,"freshness":"FRESH","line1":"1 64097U 25110B   26263.48345163  .00020301  00000+0  61037-3 0  9993","line2":"2 64097  53.1589 197.9026 0000624  81.2256 278.8817 15.34397972 75765","mean_motion":15.34397972,"eccentricity":6.24e-5,"inclination_deg":53.1589,"raan_deg":197.9026,"arg_perigee_deg":81.2256,"mean_anomaly_deg":278.8817,"bstar":0.00061037,"rev_number":7576,"period_min":93.847882119073,"perigee_km":462.28239905001,"apogee_km":463.13613666424,"semimajor_km":6840.8462678571,"source":"CELESTRAK","updated_at":"2026-09-21T09:00:35.226436Z"}}